Wind_Speed
17 16 16 16 17 17 18 17 17 17 17 17 17 17 18 18 19 19 19 19 20 20 20 20 20 21 22 21 20 20 20 21 21 20 20 21 20 20
19 18 18 18 17 18 18 17 17 17 17 18 18 18 18 19 19 20 20 20 20 20 20 20 20 20 21 21 21 21 21 21 21 22 22 22 22 21
19 19 20 20 19 18 18 18 17 17 17 18 18 18 18 19 19 19 20 20 20 20 20 20 20 20 19 20 20 20 20 21 21 22 22 22 22 22
19 20 20 20 20 20 19 19 19 18 18 18 19 19 19 19 20 20 20 21 21 21 21 21 21 21 20 19 20 20 21 21 22 22 22 22 22 22
20 21 21 20 20 20 20 20 20 20 19 20 20 20 20 20 20 21 21 21 20 21 21 21 21 21 21 21 21 21 21 22 22 22 21 22 22 23
21 21 21 21 21 20 20 20 21 21 21 21 21 21 21 22 22 22 22 22 22 21 21 21 22 22 22 21 21 21 21 22 22 22 22 22 22 23
21 21 21 21 21 21 21 21 21 21 21 22 22 22 22 23 23 23 23 22 22 22 21 22 23 23 23 23 23 23 22 22 21 22 22 22 23 23
22 22 22 22 22 21 20 20 20 21 22 22 23 23 23 24 24 24 24 24 23 23 22 23 23 24 24 24 24 23 23 23 22 22 23 23 23 23
21 22 22 22 22 22 22 21 21 22 23 23 24 24 24 24 24 24 25 24 24 24 24 23 23 23 24 24 24 24 24 24 23 23 23 23 23 24
23 23 23 23 23 22 22 23 23 24 24 24 25 25 25 25 25 25 25 25 24 24 24 24 23 23 24 24 24 24 24 23 23 23 23 24 24 24
24 24 24 24 24 24 24 24 24 24 24 23 24 24 24 25 25 25 25 24 24 25 25 25 24 24 24 24 24 24 24 24 24 24 24 24 24 24
25 25 25 25 25 25 25 25 25 26 25 25 25 24 24 24 24 24 24 25 25 25 25 26 25 25 25 25 25 24 24 24 24 24 24 24 24 24
26 26 27 27 27 27 27 27 27 27 26 26 26 26 26 25 24 25 25 25 25 26 26 26 26 26 26 25 25 25 25 25 25 24 24 25 25 24
27 28 28 29 28 28 28 28 28 28 27 27 27 27 26 26 25 26 26 26 26 27 27 27 27 27 26 26 26 25 25 25 25 25 25 25 25 25
29 29 30 30 30 29 29 28 28 29 28 28 27 27 27 26 26 26 26 27 27 27 27 27 27 27 27 27 26 26 26 26 26 26 26 26 26 26
30 30 30 30 30 30 30 30 30 30 29 28 28 27 27 28 27 27 27 28 29 28 27 28 28 27 27 27 27 27 26 27 27 28 28 27 27 27
31 31 31 31 31 31 31 30 30 30 30 29 28 28 28 27 28 27 28 29 29 30 30 29 28 28 28 27 27 27 26 27 28 28 28 28 27 27
31 31 31 31 31 31 31 31 31 31 30 30 30 29 29 29 29 29 29 29 29 29 29 29 29 29 29 28 29 29 28 28 27 27 28 28 28 28
31 31 31 31 31 31 31 31 31 31 30 31 30 30 29 30 30 30 30 30 30 30 30 30 29 29 29 28 28 29 29 29 29 28 27 28 28 28
32 32 31 31 31 30 30 30 30 30 30 30 31 30 30 30 31 31 31 30 30 30 30 29 29 29 29 29 28 28 28 28 28 28 28 28 28 27
33 33 32 32 32 31 31 31 31 31 31 31 31 31 31 31 31 32 32 31 31 31 30 29 29 29 29 29 29 28 28 28 28 28 28 28 28 28
33 33 32 32 32 31 31 32 32 31 31 32 32 32 33 33 32 32 33 32 31 31 31 30 30 30 30 29 29 28 29 29 29 28 28 28 28 28
32 32 32 32 31 31 31 31 32 32 31 31 32 32 33 33 33 32 32 32 32 32 32 31 30 30 30 30 29 29 29 29 29 28 28 28 29 29
Wind_Direction
278 278 281 283 285 285 285 282 280 275 272 271 266 264 265 264 261 260 259 260 259 261 260 260 261 260 260 258 259 261 263 265 266 267 269 270 270 270
277 279 281 283 283 284 284 281 279 276 274 273 268 266 267 265 263 261 260 261 261 262 261 260 262 262 259 258 259 261 264 266 266 267 267 268 268 269
280 282 282 282 281 282 281 279 278 277 274 271 269 268 267 266 265 263 261 259 261 263 262 261 261 261 261 260 261 262 264 267 269 269 268 268 267 269
281 282 282 281 280 280 280 278 277 276 272 270 268 268 268 267 267 265 263 260 259 261 262 262 261 260 261 261 264 266 267 268 269 270 268 268 268 268
282 282 281 280 279 279 280 279 277 276 273 270 268 268 268 268 267 266 264 261 259 259 261 262 261 261 262 263 266 267 268 268 268 269 269 269 269 269
283 283 281 279 278 278 278 278 278 275 273 271 269 268 268 268 267 266 264 262 261 261 261 263 262 262 263 264 266 268 269 269 269 269 269 270 269 271
281 283 282 280 278 278 279 278 276 275 273 271 270 269 269 269 268 266 264 262 262 264 264 264 263 263 263 264 265 267 268 269 271 270 270 272 272 274
280 282 282 281 280 278 277 276 276 275 273 271 271 271 270 269 268 266 263 262 263 264 263 264 264 264 264 264 266 267 268 269 272 274 275 276 276 276
279 280 281 281 280 276 275 275 275 275 274 274 273 271 270 269 268 265 263 263 263 264 263 264 264 263 264 265 266 268 269 270 272 274 274 273 275 277
279 279 280 280 279 278 277 276 275 276 275 275 274 272 269 269 267 264 262 262 263 263 265 265 265 266 264 264 266 268 269 270 272 273 273 273 274 276
279 280 280 279 280 278 277 277 276 277 276 276 275 272 270 270 267 264 262 262 263 263 264 265 266 267 264 265 265 267 268 269 271 273 275 275 275 277
278 279 279 279 279 279 277 277 277 277 275 274 274 273 273 270 266 263 262 263 264 264 264 266 266 266 264 264 265 267 268 269 270 272 275 276 277 277
277 277 278 279 279 279 278 277 276 276 276 274 273 272 272 269 266 263 263 266 265 265 265 265 266 265 266 265 266 267 269 269 271 272 274 275 276 277
277 277 278 278 278 278 278 278 277 276 276 274 273 271 269 267 265 265 266 267 264 265 265 265 265 265 266 266 267 268 269 270 271 272 274 275 276 277
278 278 278 278 278 277 276 277 277 276 275 274 272 270 267 266 265 265 265 263 264 265 265 264 264 265 265 265 267 268 269 270 271 273 274 275 275 276
278 276 277 278 278 277 276 276 276 276 274 273 271 268 266 266 266 267 265 263 264 264 264 264 264 264 264 265 267 267 268 270 272 273 274 275 276 276
278 277 277 278 278 277 277 276 275 275 274 270 268 265 264 266 268 268 266 265 265 264 264 263 262 262 263 264 265 267 269 271 273 274 275 274 275 275
279 279 279 279 279 278 277 276 275 273 271 269 266 265 265 266 267 266 266 265 263 263 263 262 262 263 263 263 264 266 268 270 272 273 274 274 275 275
280 280 281 280 279 279 278 276 274 273 271 268 265 265 266 266 266 266 267 265 264 263 262 261 262 264 265 266 266 266 268 269 271 273 275 276 276 275
279 279 279 280 279 279 277 276 273 271 270 270 268 267 266 266 266 266 266 265 264 263 263 262 262 263 264 264 266 267 269 270 272 274 275 276 276 277
278 278 278 279 278 277 275 274 273 272 271 271 270 269 267 266 265 266 266 265 264 263 262 262 262 263 264 265 265 266 269 270 272 274 275 276 277 278
277 277 277 278 277 277 275 274 274 273 271 270 269 269 268 266 265 265 265 264 264 263 262 261 262 263 263 264 264 265 268 270 271 273 275 276 278 280
277 276 276 276 277 277 276 276 275 273 272 271 270 269 268 267 266 264 264 262 262 262 262 261 261 262 262 263 264 265 267 270 272 274 276 276 277 279
Height
5796 5795 5794 5793 5791 5790 5788 5787 5786 5784 5784 5783 5783 5783 5784 5784 5784 5785 5785 5786 5787 5788 5788 5789 5789 5789 5790 5790 5790 5791 5791 5791 5791 5791 5791 5791 5790 5790
5791 5790 5789 5788 5786 5785 5783 5782 5781 5780 5779 5779 5779 5778 5779 5779 5779 5779 5780 5781 5782 5782 5783 5783 5784 5784 5784 5785 5785 5785 5786 5786 5786 5785 5785 5785 5785 5784
5786 5785 5784 5782 5781 5780 5778 5777 5776 5775 5774 5774 5774 5774 5774 5774 5774 5774 5775 5775 5776 5777 5777 5778 5778 5778 5779 5779 5780 5780 5780 5780 5780 5780 5779 5779 5779 5778
5780 5779 5778 5776 5775 5774 5773 5772 5771 5770 5770 5769 5769 5769 5769 5769 5768 5769 5769 5770 5770 5771 5772 5772 5773 5773 5773 5774 5774 5774 5774 5774 5774 5773 5773 5773 5772 5772
5774 5773 5772 5771 5770 5769 5768 5767 5766 5765 5765 5764 5764 5764 5763 5763 5763 5763 5763 5764 5764 5765 5765 5766 5767 5767 5767 5768 5768 5768 5768 5768 5767 5767 5767 5766 5766 5765
5768 5767 5766 5765 5763 5762 5762 5761 5760 5759 5759 5758 5758 5758 5758 5757 5757 5757 5757 5758 5758 5759 5760 5760 5761 5761 5761 5762 5762 5762 5762 5762 5761 5761 5760 5760 5759 5759
5761 5760 5759 5758 5757 5756 5755 5755 5754 5753 5753 5752 5752 5752 5751 5751 5751 5751 5751 5751 5752 5753 5753 5754 5754 5755 5755 5755 5756 5756 5756 5755 5755 5754 5754 5753 5753 5752
5755 5754 5752 5751 5750 5750 5749 5748 5747 5747 5746 5746 5745 5745 5745 5744 5744 5744 5745 5745 5746 5747 5747 5747 5748 5748 5748 5748 5749 5749 5749 5749 5748 5748 5747 5746 5746 5745
5748 5747 5746 5745 5744 5743 5742 5741 5741 5740 5739 5739 5738 5738 5737 5737 5737 5737 5738 5738 5739 5740 5740 5740 5741 5741 5741 5741 5742 5742 5742 5742 5742 5741 5740 5739 5739 5738
5741 5740 5739 5738 5737 5736 5735 5734 5734 5733 5732 5732 5731 5730 5730 5729 5730 5730 5730 5731 5732 5733 5733 5733 5734 5734 5734 5735 5735 5735 5735 5735 5735 5734 5733 5732 5731 5730
5734 5733 5732 5731 5730 5729 5728 5727 5726 5725 5725 5724 5723 5723 5722 5722 5722 5722 5723 5724 5725 5725 5726 5726 5727 5727 5727 5727 5728 5728 5728 5727 5727 5727 5726 5725 5724 5723
5727 5726 5725 5723 5722 5721 5720 5719 5718 5718 5717 5716 5716 5715 5715 5714 5714 5715 5716 5717 5717 5718 5718 5719 5719 5719 5720 5720 5720 5720 5720 5720 5719 5719 5718 5718 5717 5715
5719 5718 5717 5715 5714 5713 5712 5711 5710 5709 5709 5708 5707 5707 5707 5707 5707 5707 5708 5709 5710 5710 5711 5711 5711 5712 5712 5712 5712 5712 5712 5712 5711 5711 5710 5710 5709 5708
5711 5710 5709 5707 5706 5705 5704 5703 5702 5701 5700 5700 5699 5699 5699 5699 5699 5700 5700 5701 5701 5702 5702 5703 5703 5703 5704 5704 5704 5704 5704 5704 5703 5703 5703 5702 5701 5700
5703 5701 5700 5698 5697 5696 5695 5694 5693 5692 5692 5691 5691 5690 5690 5691 5691 5692 5692 5693 5693 5693 5694 5694 5695 5695 5695 5696 5696 5696 5696 5696 5695 5695 5694 5693 5693 5692
5693 5692 5691 5689 5688 5687 5686 5685 5684 5684 5683 5682 5682 5682 5681 5682 5682 5683 5683 5684 5684 5685 5685 5686 5686 5687 5687 5687 5687 5687 5687 5687 5687 5686 5686 5685 5684 5683
5684 5682 5681 5680 5679 5678 5677 5676 5675 5674 5674 5673 5673 5673 5673 5673 5674 5674 5675 5675 5675 5676 5676 5677 5677 5678 5678 5679 5679 5679 5679 5679 5678 5678 5677 5677 5676 5675
5675 5673 5672 5671 5670 5669 5667 5666 5665 5665 5664 5664 5664 5664 5664 5664 5665 5665 5666 5666 5666 5667 5667 5668 5668 5669 5669 5670 5670 5670 5670 5670 5670 5670 5669 5668 5667 5666
5665 5664 5663 5662 5660 5659 5658 5657 5656 5655 5655 5655 5655 5655 5655 5655 5656 5656 5656 5657 5657 5657 5658 5658 5659 5659 5660 5661 5662 5662 5662 5662 5661 5661 5660 5660 5659 5658
5655 5654 5653 5652 5651 5650 5649 5648 5647 5646 5646 5646 5645 5645 5646 5646 5646 5647 5647 5647 5648 5648 5649 5649 5650 5650 5651 5652 5653 5653 5653 5653 5652 5652 5652 5651 5650 5649
5645 5644 5642 5641 5640 5640 5639 5638 5637 5637 5636 5636 5636 5636 5636 5636 5637 5637 5637 5638 5638 5638 5639 5640 5641 5641 5641 5642 5644 5644 5644 5644 5643 5643 5642 5642 5641 5640
5634 5633 5632 5631 5630 5629 5629 5628 5627 5627 5626 5626 5626 5626 5626 5626 5627 5627 5627 5628 5628 5629 5630 5631 5631 5631 5632 5633 5634 5635 5635 5634 5634 5633 5633 5633 5631 5631
5624 5623 5622 5621 5620 5619 5618 5617 5617 5616 5616 5616 5616 5615 5615 5616 5616 5617 5617 5617 5618 5619 5620 5621 5622 5622 5623 5624 5624 5625 5625 5625 5625 5624 5624 5623 5622 5622